DW5721 Weather Reports


Display with metric or nautical units.
time (UTC)temp
F
wind
direction
speed
MPH
gust
MPH
rain 1hr
in
rain 24hr
in
rain mn
in
humidity
%
barometer
mb
20260902134912 79 38 2.0 10.0 0.00 0.00 0.00 29 1017.5
20260902133837 79 37 3.0 10.0 0.00 0.00 0.00 28 1017.5
20260902131653 80 86 3.0 6.0 0.00 0.00 0.00 31 1017.6
20260902125450 78 88 0.0 6.0 0.00 0.00 0.00 35 1017.9
20260902123233 77 90 1.0 6.0 0.00 0.00 0.00 39 1018.1
20260902122251 76 90 1.0 6.0 0.00 0.00 0.00 41 1018.1
20260902121219 76 84 1.0 6.0 0.00 0.00 0.00 43 1018.3
20260902120241 76 98 1.0 5.0 0.00 0.00 0.00 45 1018.4
20260902115207 75 100 0.0 5.0 0.00 0.00 0.00 46 1018.6
20260902111946 73 84 0.0 0.0 0.00 0.00 0.00 52 1019.0
20260902103525 68 96 0.0 0.0 0.00 0.00 0.00 60 1019.7
20260902101412 67 94 0.0 0.0 0.00 0.00 0.00 61 1020.0
20260902100339 66 95 0.0 0.0 0.00 0.00 0.00 62 1020.1
20260902095345 66 96 0.0 0.0 0.00 0.00 0.00 63 1020.2
20260902094332 65 94 0.0 0.0 0.00 0.00 0.00 64 1020.2
20260902093335 65 105 0.0 3.0 0.00 0.00 0.00 64 1020.3
20260902092342 65 134 0.0 0.0 0.00 0.00 0.00 63 1020.3
20260902091336 64 154 0.0 0.0 0.00 0.00 0.00 66 1020.3
20260902090352 63 155 0.0 0.0 0.00 0.00 0.00 71 1020.5
20260902085314 62 155 0.0 0.0 0.00 0.00 0.00 71 1020.6
20260902082018 59 167 0.0 0.0 0.00 0.00 0.00 76 1020.6
20260902080947 58 167 0.0 0.0 0.00 0.00 0.00 78 1020.6
20260902075923 58 167 0.0 0.0 0.00 0.00 0.00 79 1020.6
20260902074928 57 167 0.0 0.0 0.00 0.00 0.00 80 1020.6
20260902073927 56 167 0.0 0.0 0.00 0.00 0.00 80 1020.5
20260902071744 56 167 0.0 0.0 0.00 0.00 0.00 80 1020.5
20260902070705 56 167 0.0 0.0 0.00 0.00 0.00 78 1020.5
20260902065641 56 167 0.0 0.0 0.00 0.00 0.00 78 1020.5
20260902064642 56 167 0.0 0.0 0.00 0.00 0.00 78 1020.4
20260902063601 56 167 0.0 1.0 0.00 0.00 0.00 78 1020.4
20260902062619 56 167 0.0 0.0 0.00 0.00 0.00 80 1020.4
20260902061633 55 171 0.0 0.0 0.00 0.00 0.00 82 1020.4
20260902060623 55 171 0.0 0.0 0.00 0.00 0.00 82 1020.5
20260902055630 54 169 0.0 0.0 0.00 0.00 0.00 84 1020.6
20260902054613 54 165 0.0 0.0 0.00 0.00 0.00 86 1020.6
20260902052439 52 159 0.0 0.0 0.00 0.00 0.00 88 1020.5
20260902051445 52 158 0.0 0.0 0.00 0.00 0.00 88 1020.4
20260902050458 51 158 0.0 0.0 0.00 0.00 0.00 88 1020.4
20260902045421 51 158 0.0 0.0 0.00 0.00 0.00 87 1020.3
20260902044353 51 157 0.0 0.0 0.00 0.00 0.00 87 1020.3
20260902043326 52 156 0.0 0.0 0.00 0.00 0.00 88 1020.3
20260902042335 52 156 0.0 0.0 0.00 0.00 0.00 88 1020.3
20260902041320 52 156 0.0 0.0 0.00 0.00 0.00 87 1020.2
20260902040314 52 119 0.0 0.0 0.00 0.00 0.00 87 1020.1
20260901150122 73 37 6.0 14.0 0.00 0.00 0.00 48 1016.8
20260901143942 73 42 5.0 14.0 0.00 0.00 0.00 46 1016.7
20260901142939 74 12 5.0 14.0 0.00 0.00 0.00 45 1016.7
20260901141918 73 34 7.0 14.0 0.00 0.00 0.00 45 1016.6
20260901140854 74 67 7.0 13.0 0.00 0.00 0.00 44 1016.6
20260901135902 75 48 5.0 17.0 0.00 0.00 0.00 44 1016.7